Time,TemperatureF,DewpointF,PressureIn,WindDirection,WindDirectionDegrees,WindSpeedMPH,WindSpeedGustMPH,Humidity,HourlyPrecipIn,Conditions,Clouds,dailyrainin,SoftwareType,DateUTC
2013-02-20 00:02:00,27.0,18.0,29.83,WSW,256,10.0,21.0,69,0.00,,,0.12,,2013-02-20 05:02:00,
2013-02-20 00:12:00,27.0,18.0,29.83,WSW,256,10.0,21.0,69,0.00,,,0.12,,2013-02-20 05:12:00,
2013-02-20 00:22:00,27.0,19.0,29.83,WSW,254,6.0,21.0,70,0.00,,,0.12,,2013-02-20 05:22:00,
2013-02-20 00:32:00,27.0,19.0,29.84,NW,304,8.0,18.0,71,0.00,,,0.12,,2013-02-20 05:32:00,
2013-02-20 00:43:00,27.0,19.0,29.84,NW,304,8.0,18.0,71,0.00,,,0.12,,2013-02-20 05:43:00,
2013-02-20 00:52:00,26.0,18.0,29.84,West,266,8.0,24.0,72,0.00,,,0.12,,2013-02-20 05:52:00,
2013-02-20 01:02:00,26.0,19.0,29.84,WNW,284,10.0,17.0,74,0.00,,,0.12,,2013-02-20 06:02:00,
2013-02-20 01:11:00,26.0,19.0,29.84,WNW,284,10.0,17.0,74,0.00,,,0.12,,2013-02-20 06:11:00,
2013-02-20 01:22:00,26.0,19.0,29.84,WSW,254,9.0,24.0,73,0.00,,,0.12,,2013-02-20 06:22:00,
2013-02-20 01:32:00,26.0,19.0,29.84,WSW,252,6.0,20.0,74,0.00,,,0.12,,2013-02-20 06:32:00,
2013-02-20 01:42:00,26.0,19.0,29.84,WSW,252,6.0,20.0,74,0.00,,,0.12,,2013-02-20 06:42:00,
2013-02-20 01:52:00,25.0,18.0,29.85,SW,236,10.0,26.0,73,0.00,,,0.12,,2013-02-20 06:52:00,
2013-02-20 02:02:00,25.0,18.0,29.85,West,263,9.0,22.0,74,0.00,,,0.12,,2013-02-20 07:02:00,
2013-02-20 02:11:00,25.0,18.0,29.85,West,263,9.0,22.0,74,0.00,,,0.12,,2013-02-20 07:11:00,
2013-02-20 02:21:00,25.0,18.0,29.86,NW,309,7.0,23.0,75,0.00,,,0.12,,2013-02-20 07:21:00,
2013-02-20 02:32:00,25.0,19.0,29.85,NW,309,9.0,22.0,77,0.00,,,0.12,,2013-02-20 07:32:00,
2013-02-20 02:42:00,25.0,19.0,29.85,NW,309,9.0,22.0,77,0.00,,,0.12,,2013-02-20 07:42:00,
2013-02-20 02:52:00,25.0,19.0,29.86,WNW,295,6.0,18.0,79,0.00,,,0.12,,2013-02-20 07:52:00,
2013-02-20 03:05:00,24.0,18.0,29.86,WNW,282,11.0,26.0,79,0.00,,,0.12,,2013-02-20 08:05:00,
2013-02-20 03:11:00,24.0,18.0,29.86,WNW,282,11.0,26.0,79,0.00,,,0.12,,2013-02-20 08:11:00,
2013-02-20 03:22:00,24.0,18.0,29.86,SW,234,8.0,24.0,77,0.00,,,0.12,,2013-02-20 08:22:00,
2013-02-20 03:32:00,24.0,18.0,29.86,WSW,253,8.0,21.0,77,0.00,,,0.12,,2013-02-20 08:32:00,
2013-02-20 03:42:00,24.0,18.0,29.86,WSW,253,8.0,21.0,77,0.00,,,0.12,,2013-02-20 08:42:00,
2013-02-20 03:52:00,24.0,19.0,29.86,WSW,249,8.0,19.0,80,0.00,,,0.12,,2013-02-20 08:52:00,
2013-02-20 04:02:00,24.0,18.0,29.86,West,277,8.0,26.0,76,0.00,,,0.12,,2013-02-20 09:02:00,
2013-02-20 04:11:00,24.0,18.0,29.86,West,277,8.0,26.0,76,0.00,,,0.12,,2013-02-20 09:11:00,
2013-02-20 04:21:00,23.0,16.0,29.86,SW,236,7.0,19.0,74,0.00,,,0.12,,2013-02-20 09:21:00,
2013-02-20 04:32:00,23.0,16.0,29.87,WSW,257,8.0,23.0,74,0.00,,,0.12,,2013-02-20 09:32:00,
2013-02-20 04:42:00,23.0,16.0,29.87,WSW,257,8.0,23.0,74,0.00,,,0.12,,2013-02-20 09:42:00,
2013-02-20 04:51:00,23.0,16.0,29.87,NW,315,7.0,23.0,75,0.00,,,0.12,,2013-02-20 09:51:00,
2013-02-20 05:01:00,23.0,16.0,29.88,WNW,298,8.0,20.0,73,0.00,,,0.12,,2013-02-20 10:01:00,
2013-02-20 05:12:00,23.0,16.0,29.88,WNW,298,8.0,20.0,73,0.00,,,0.12,,2013-02-20 10:12:00,
2013-02-20 05:22:00,23.0,16.0,29.88,WNW,289,8.0,16.0,75,0.00,,,0.12,,2013-02-20 10:22:00,
2013-02-20 05:32:00,22.0,16.0,29.89,WSW,258,6.0,17.0,76,0.00,,,0.12,,2013-02-20 10:32:00,
2013-02-20 05:42:00,22.0,16.0,29.89,WSW,258,6.0,17.0,76,0.00,,,0.12,,2013-02-20 10:42:00,
2013-02-20 05:51:00,22.0,15.0,29.89,WNW,294,5.0,21.0,73,0.00,,,0.12,,2013-02-20 10:51:00,
2013-02-20 06:02:00,22.0,15.0,29.89,NW,318,6.0,17.0,75,0.00,,,0.12,,2013-02-20 11:02:00,
2013-02-20 06:11:00,22.0,15.0,29.89,NW,318,6.0,17.0,75,0.00,,,0.12,,2013-02-20 11:11:00,
2013-02-20 06:21:00,21.0,15.0,29.89,NNW,335,7.0,13.0,76,0.00,,,0.12,,2013-02-20 11:21:00,
2013-02-20 06:32:00,21.0,14.0,29.90,WNW,287,6.0,18.0,74,0.00,,,0.12,,2013-02-20 11:32:00,
2013-02-20 06:42:00,21.0,14.0,29.90,WNW,287,6.0,18.0,74,0.00,,,0.12,,2013-02-20 11:42:00,
2013-02-20 06:52:00,21.0,14.0,29.90,West,270,9.0,17.0,74,0.00,,,0.12,,2013-02-20 11:52:00,
2013-02-20 07:02:00,21.0,14.0,29.91,WNW,289,9.0,21.0,74,0.00,,,0.12,,2013-02-20 12:02:00,
2013-02-20 07:12:00,21.0,14.0,29.91,WNW,289,9.0,21.0,74,0.00,,,0.12,,2013-02-20 12:12:00,
2013-02-20 07:22:00,21.0,14.0,29.91,WNW,288,6.0,13.0,74,0.00,,,0.12,,2013-02-20 12:22:00,
2013-02-20 07:32:00,21.0,14.0,29.91,WSW,242,8.0,18.0,74,0.00,,,0.12,,2013-02-20 12:32:00,
2013-02-20 07:42:00,21.0,14.0,29.91,WSW,242,8.0,18.0,74,0.00,,,0.12,,2013-02-20 12:42:00,
2013-02-20 07:52:00,21.0,13.0,29.92,West,262,11.0,18.0,71,0.00,,,0.12,,2013-02-20 12:52:00,
2013-02-20 08:01:00,21.0,12.0,29.92,WNW,289,8.0,20.0,69,0.00,,,0.12,,2013-02-20 13:01:00,
2013-02-20 08:12:00,21.0,12.0,29.92,WNW,289,8.0,20.0,69,0.00,,,0.12,,2013-02-20 13:12:00,
2013-02-20 08:22:00,21.0,13.0,29.93,WNW,296,7.0,22.0,72,0.00,,,0.12,,2013-02-20 13:22:00,
2013-02-20 08:32:00,22.0,14.0,29.93,WNW,283,10.0,25.0,72,0.00,,,0.12,,2013-02-20 13:32:00,
2013-02-20 08:42:00,22.0,14.0,29.93,WNW,283,10.0,25.0,72,0.00,,,0.12,,2013-02-20 13:42:00,
2013-02-20 08:51:00,22.0,13.0,29.93,WSW,254,8.0,24.0,69,0.00,,,0.12,,2013-02-20 13:51:00,
2013-02-20 09:01:00,22.0,14.0,29.93,WSW,240,7.0,23.0,70,0.00,,,0.12,,2013-02-20 14:01:00,
2013-02-20 09:11:00,22.0,14.0,29.93,WSW,240,7.0,23.0,70,0.00,,,0.12,,2013-02-20 14:11:00,
2013-02-20 09:22:00,22.0,14.0,29.93,West,260,10.0,24.0,70,0.00,,,0.12,,2013-02-20 14:22:00,
2013-02-20 09:32:00,23.0,15.0,29.93,West,259,5.0,21.0,70,0.00,,,0.08,,2013-02-20 14:32:00,
2013-02-20 09:42:00,23.0,15.0,29.93,West,259,5.0,21.0,70,0.00,,,0.08,,2013-02-20 14:42:00,
2013-02-20 09:52:00,23.0,13.0,29.93,West,270,10.0,21.0,66,0.00,,,0.08,,2013-02-20 14:52:00,
2013-02-20 10:02:00,23.0,13.0,29.93,West,270,10.0,21.0,66,0.00,,,0.08,,2013-02-20 15:02:00,
2013-02-20 10:12:00,23.0,13.0,29.93,West,270,10.0,21.0,66,0.00,,,0.08,,2013-02-20 15:12:00,
2013-02-20 10:22:00,24.0,13.0,29.93,West,259,8.0,20.0,61,0.00,,,0.08,,2013-02-20 15:22:00,
2013-02-20 10:32:00,25.0,12.0,29.93,West,273,10.0,27.0,58,0.00,,,0.01,,2013-02-20 15:32:00,
2013-02-20 10:42:00,25.0,12.0,29.93,West,273,10.0,27.0,58,0.00,,,0.01,,2013-02-20 15:42:00,
2013-02-20 10:52:00,25.0,13.0,29.94,WSW,250,7.0,20.0,59,0.00,,,0.01,,2013-02-20 15:52:00,
2013-02-20 11:01:00,24.0,11.0,29.95,West,281,10.0,25.0,58,0.00,,,0.01,,2013-02-20 16:01:00,
2013-02-20 11:12:00,24.0,11.0,29.95,West,281,10.0,25.0,58,0.00,,,0.01,,2013-02-20 16:12:00,
2013-02-20 11:22:00,24.0,12.0,29.95,WNW,303,9.0,29.0,60,0.00,,,0.01,,2013-02-20 16:22:00,
2013-02-20 11:32:00,24.0,11.0,29.95,NW,315,12.0,26.0,58,0.00,,,0.00,,2013-02-20 16:32:00,
2013-02-20 11:42:00,24.0,11.0,29.95,NW,315,12.0,26.0,58,0.00,,,0.00,,2013-02-20 16:42:00,
2013-02-20 11:52:00,24.0,11.0,29.95,WNW,296,14.0,25.0,57,0.00,,,0.00,,2013-02-20 16:52:00,
2013-02-20 12:01:00,24.0,11.0,29.96,WNW,296,14.0,24.0,57,0.00,,,0.00,,2013-02-20 17:01:00,
2013-02-20 12:11:00,24.0,11.0,29.96,WNW,293,11.0,29.0,56,0.00,,,0.00,,2013-02-20 17:11:00,
2013-02-20 12:21:00,24.0,11.0,29.96,WNW,293,11.0,29.0,56,0.00,,,0.00,,2013-02-20 17:21:00,
2013-02-20 12:32:00,24.0,11.0,29.96,WNW,294,10.0,24.0,57,0.00,,,0.00,,2013-02-20 17:32:00,
2013-02-20 12:42:00,24.0,11.0,29.96,WNW,294,10.0,24.0,57,0.00,,,0.00,,2013-02-20 17:42:00,
2013-02-20 12:52:00,24.0,11.0,29.96,West,281,9.0,22.0,58,0.00,,,0.00,,2013-02-20 17:52:00,
2013-02-20 13:02:00,25.0,12.0,29.97,NW,321,13.0,25.0,57,0.00,,,0.00,,2013-02-20 18:02:00,
2013-02-20 13:11:00,25.0,12.0,29.97,NW,321,13.0,25.0,57,0.00,,,0.00,,2013-02-20 18:11:00,
2013-02-20 13:22:00,25.0,12.0,29.97,West,274,10.0,25.0,58,0.00,,,0.00,,2013-02-20 18:22:00,
2013-02-20 13:32:00,25.0,13.0,29.97,WNW,303,12.0,25.0,60,0.00,,,0.00,,2013-02-20 18:32:00,
2013-02-20 13:42:00,25.0,13.0,29.97,WNW,303,12.0,25.0,60,0.00,,,0.00,,2013-02-20 18:42:00,
2013-02-20 13:52:00,24.0,13.0,29.98,NW,306,10.0,31.0,61,0.00,,,0.00,,2013-02-20 18:52:00,
2013-02-20 14:01:00,24.0,13.0,29.98,West,279,15.0,32.0,61,0.00,,,0.00,,2013-02-20 19:01:00,
2013-02-20 14:11:00,24.0,13.0,29.98,West,279,15.0,32.0,61,0.00,,,0.00,,2013-02-20 19:11:00,
2013-02-20 14:21:00,25.0,13.0,29.98,WNW,302,12.0,28.0,61,0.00,,,0.00,,2013-02-20 19:21:00,
2013-02-20 14:32:00,25.0,14.0,29.98,West,273,12.0,25.0,63,0.00,,,0.00,,2013-02-20 19:32:00,
2013-02-20 14:41:00,25.0,14.0,29.98,West,273,12.0,25.0,63,0.00,,,0.00,,2013-02-20 19:41:00,
2013-02-20 14:52:00,25.0,15.0,29.99,WNW,289,13.0,29.0,65,0.00,,,0.00,,2013-02-20 19:52:00,
2013-02-20 15:01:00,24.0,14.0,30.00,SW,234,11.0,27.0,65,0.00,,,0.00,,2013-02-20 20:01:00,
2013-02-20 15:11:00,24.0,14.0,30.01,West,261,11.0,24.0,65,0.00,,,0.00,,2013-02-20 20:11:00,
2013-02-20 15:21:00,24.0,14.0,30.01,West,261,11.0,24.0,65,0.00,,,0.00,,2013-02-20 20:21:00,
2013-02-20 15:31:00,24.0,15.0,30.01,West,279,12.0,25.0,68,0.00,,,0.00,,2013-02-20 20:31:00,
2013-02-20 15:41:00,24.0,15.0,30.01,West,279,12.0,25.0,68,0.00,,,0.00,,2013-02-20 20:41:00,
2013-02-20 15:51:00,23.0,14.0,30.02,SW,234,11.0,30.0,69,0.00,,,0.00,,2013-02-20 20:51:00,
2013-02-20 16:01:00,23.0,14.0,30.03,West,273,15.0,27.0,69,0.00,,,0.00,,2013-02-20 21:01:00,
2013-02-20 16:11:00,23.0,14.0,30.03,West,273,15.0,27.0,69,0.00,,,0.00,,2013-02-20 21:11:00,
2013-02-20 16:21:00,23.0,15.0,30.03,NW,305,9.0,22.0,70,0.00,,,0.00,,2013-02-20 21:21:00,
2013-02-20 16:32:00,23.0,15.0,30.04,WNW,298,11.0,22.0,72,0.00,,,0.00,,2013-02-20 21:32:00,
2013-02-20 16:42:00,23.0,15.0,30.04,WNW,298,11.0,22.0,72,0.00,,,0.00,,2013-02-20 21:42:00,
2013-02-20 16:52:00,23.0,15.0,30.04,WNW,302,12.0,21.0,70,0.00,,,0.00,,2013-02-20 21:52:00,
2013-02-20 17:02:00,23.0,14.0,30.05,WNW,295,12.0,26.0,68,0.00,,,0.00,,2013-02-20 22:02:00,
2013-02-20 17:11:00,23.0,14.0,30.05,WNW,295,12.0,26.0,68,0.00,,,0.00,,2013-02-20 22:11:00,
2013-02-20 17:21:00,23.0,14.0,30.06,WNW,284,8.0,28.0,69,0.00,,,0.00,,2013-02-20 22:21:00,
2013-02-20 17:31:00,23.0,15.0,30.07,WSW,245,14.0,32.0,72,0.00,,,0.00,,2013-02-20 22:31:00,
2013-02-20 17:43:00,23.0,15.0,30.07,WSW,245,14.0,32.0,72,0.00,,,0.00,,2013-02-20 22:43:00,
2013-02-20 17:51:00,23.0,16.0,30.06,West,265,10.0,21.0,75,0.00,,,0.00,,2013-02-20 22:51:00,
2013-02-20 18:01:00,22.0,15.0,30.06,WSW,256,8.0,31.0,75,0.00,,,0.00,,2013-02-20 23:01:00,
2013-02-20 18:12:00,22.0,15.0,30.06,WSW,256,8.0,31.0,75,0.00,,,0.00,,2013-02-20 23:12:00,
2013-02-20 18:22:00,22.0,15.0,30.07,WSW,254,9.0,23.0,74,0.00,,,0.00,,2013-02-20 23:22:00,
2013-02-20 18:32:00,22.0,15.0,30.08,West,280,10.0,29.0,74,0.00,,,0.00,,2013-02-20 23:32:00,
2013-02-20 18:42:00,22.0,15.0,30.08,West,280,10.0,29.0,74,0.00,,,0.00,,2013-02-20 23:42:00,
2013-02-20 18:52:00,22.0,15.0,30.09,WNW,297,9.0,23.0,75,0.00,,,0.00,,2013-02-20 23:52:00,
2013-02-20 19:03:00,22.0,15.0,30.10,WNW,297,10.0,25.0,75,0.00,,,0.00,,2013-02-21 00:03:00,
2013-02-20 19:11:00,22.0,15.0,30.10,WNW,297,10.0,25.0,75,0.00,,,0.00,,2013-02-21 00:11:00,
2013-02-20 19:22:00,22.0,15.0,30.10,West,267,11.0,24.0,73,0.00,,,0.00,,2013-02-21 00:22:00,
2013-02-20 19:32:00,22.0,14.0,30.10,West,273,12.0,28.0,72,0.00,,,0.00,,2013-02-21 00:32:00,
2013-02-20 19:42:00,22.0,14.0,30.10,West,273,12.0,28.0,72,0.00,,,0.00,,2013-02-21 00:42:00,
2013-02-20 19:52:00,22.0,14.0,30.10,West,273,11.0,27.0,72,0.00,,,0.00,,2013-02-21 00:52:00,
2013-02-20 20:01:00,22.0,14.0,30.10,SW,230,10.0,24.0,71,0.00,,,0.00,,2013-02-21 01:01:00,
2013-02-20 20:11:00,22.0,14.0,30.10,SW,230,10.0,24.0,71,0.00,,,0.00,,2013-02-21 01:11:00,
2013-02-20 20:21:00,22.0,14.0,30.10,WNW,302,10.0,24.0,71,0.00,,,0.00,,2013-02-21 01:21:00,
2013-02-20 20:32:00,22.0,14.0,30.11,West,278,13.0,25.0,70,0.00,,,0.00,,2013-02-21 01:32:00,
2013-02-20 20:42:00,22.0,14.0,30.11,West,278,13.0,25.0,70,0.00,,,0.00,,2013-02-21 01:42:00,
2013-02-20 20:52:00,22.0,13.0,30.12,WSW,257,13.0,27.0,69,0.00,,,0.00,,2013-02-21 01:52:00,
2013-02-20 21:02:00,21.0,13.0,30.13,West,270,10.0,23.0,70,0.00,,,0.00,,2013-02-21 02:02:00,
2013-02-20 21:11:00,21.0,13.0,30.13,West,270,10.0,23.0,70,0.00,,,0.00,,2013-02-21 02:11:00,
2013-02-20 21:22:00,21.0,13.0,30.13,West,272,11.0,22.0,71,0.00,,,0.00,,2013-02-21 02:22:00,
2013-02-20 21:32:00,21.0,13.0,30.14,WNW,291,10.0,30.0,72,0.00,,,0.00,,2013-02-21 02:32:00,
2013-02-20 21:42:00,21.0,13.0,30.14,WNW,291,10.0,30.0,72,0.00,,,0.00,,2013-02-21 02:42:00,
2013-02-20 21:52:00,21.0,13.0,30.14,WNW,291,10.0,30.0,72,0.00,,,0.00,,2013-02-21 02:52:00,
2013-02-20 22:02:00,21.0,13.0,30.14,WNW,291,7.0,23.0,72,0.00,,,0.00,,2013-02-21 03:02:00,
2013-02-20 22:12:00,21.0,13.0,30.14,WNW,291,7.0,23.0,72,0.00,,,0.00,,2013-02-21 03:12:00,
2013-02-20 22:21:00,21.0,14.0,30.14,WNW,299,12.0,23.0,73,0.00,,,0.00,,2013-02-21 03:21:00,
2013-02-20 22:32:00,20.0,13.0,30.14,SW,232,10.0,19.0,74,0.00,,,0.00,,2013-02-21 03:32:00,
2013-02-20 22:42:00,20.0,13.0,30.14,SW,232,10.0,19.0,74,0.00,,,0.00,,2013-02-21 03:42:00,
2013-02-20 22:52:00,20.0,13.0,30.14,West,267,11.0,22.0,75,0.00,,,0.00,,2013-02-21 03:52:00,
2013-02-20 23:01:00,20.0,14.0,30.14,NW,321,7.0,22.0,77,0.00,,,0.00,,2013-02-21 04:01:00,
2013-02-20 23:11:00,20.0,14.0,30.14,NW,321,7.0,22.0,77,0.00,,,0.00,,2013-02-21 04:11:00,
2013-02-20 23:22:00,20.0,14.0,30.14,West,268,10.0,17.0,78,0.00,,,0.00,,2013-02-21 04:22:00,
2013-02-20 23:32:00,20.0,15.0,30.13,West,281,5.0,16.0,79,0.00,,,0.00,,2013-02-21 04:32:00,
2013-02-20 23:42:00,20.0,15.0,30.13,West,281,5.0,16.0,79,0.00,,,0.00,,2013-02-21 04:42:00,
2013-02-20 23:52:00,20.0,15.0,30.13,West,267,6.0,17.0,79,0.00,,,0.00,,2013-02-21 04:52:00,